LNYLP ENHD-ENZV

Flight info

Callsign LNYLP
Flight time 0h 9m
Altitude
Route VFR/36
Aircraft C172

Departure

Time 2026-04-25 20:52
Airport Haugesund Airport, Karmøy (ENHD)

Arrival

Time 2026-04-25 21:01
Airport Stavanger Airport, Sola (ENZV)
Time Latitude Longitude Altitude Speed Heading
2026-04-25 20:52 59.15794 5.29978 4884 ft 139 kts 154°
2026-04-25 20:52 59.15507 5.30218 4913 ft 137 kts 154°
2026-04-25 20:52 59.14080 5.31528 5008 ft 137 kts 142°
2026-04-25 20:52 59.13248 5.32439 5067 ft 135 kts 138°
2026-04-25 20:53 59.12486 5.33472 5120 ft 135 kts 141°
2026-04-25 20:53 59.11704 5.34515 5171 ft 135 kts 142°
2026-04-25 20:53 59.10902 5.35454 5207 ft 138 kts 152°
2026-04-25 20:53 59.10018 5.36201 5259 ft 137 kts 151°
2026-04-25 20:54 59.09171 5.37064 5284 ft 138 kts 147°
2026-04-25 20:54 59.08384 5.38100 5324 ft 135 kts 133°
2026-04-25 20:54 59.07767 5.39444 5362 ft 131 kts 117°
2026-04-25 20:54 59.07361 5.41003 5371 ft 133 kts 114°
2026-04-25 20:55 59.06949 5.41968 5318 ft 142 kts 129°
2026-04-25 20:55 59.06201 5.43223 5276 ft 146 kts 146°
2026-04-25 20:55 59.05274 5.44041 5264 ft 145 kts 157°
2026-04-25 20:55 59.04305 5.44594 5243 ft 147 kts 170°
2026-04-25 20:56 59.03300 5.44967 5233 ft 146 kts 163°
2026-04-25 20:56 59.02349 5.45618 5212 ft 146 kts 158°
2026-04-25 20:56 59.01344 5.46377 4851 ft 163 kts 159°
2026-04-25 20:56 59.00317 5.47110 4558 ft 152 kts 156°
2026-04-25 20:57 58.99392 5.47996 4241 ft 143 kts 148°
2026-04-25 20:57 58.98560 5.48943 3997 ft 137 kts 145°
2026-04-25 20:57 58.97738 5.49821 3788 ft 133 kts 160°
2026-04-25 20:57 58.96839 5.50211 3635 ft 125 kts 173°
2026-04-25 20:58 58.95946 5.50485 3329 ft 133 kts 169°
2026-04-25 20:58 58.95039 5.50808 2994 ft 134 kts 170°
2026-04-25 20:58 58.94117 5.51119 2635 ft 134 kts 167°
2026-04-25 20:58 58.93214 5.51587 2253 ft 134 kts 160°
2026-04-25 20:59 58.92329 5.52180 1875 ft 135 kts 157°
2026-04-25 20:59 58.91460 5.52848 1518 ft 132 kts 153°
2026-04-25 20:59 58.90655 5.53641 1198 ft 125 kts 145°
2026-04-25 20:59 58.89985 5.54518 1072 ft 107 kts 135°
2026-04-25 21:00 58.89457 5.55456 902 ft 99 kts 124°
2026-04-25 21:00 58.89166 5.56093 794 ft 94 kts 117°
2026-04-25 21:00 58.88476 5.58614 351 ft 87 kts 101°
2026-04-25 21:01 58.88294 5.59708 181 ft 84 kts 94°
2026-04-25 21:01 58.88135 5.60784 41 ft 82 kts 97°
2026-04-25 21:01 58.88004 5.61687 18 ft 61 kts 103°
2026-04-25 21:01 58.87894 5.62377 22 ft 49 kts 107°
2026-04-25 21:02 58.87826 5.62816 22 ft 20 kts 105°
2026-04-25 21:02 58.87790 5.63058 24 ft 18 kts 101°
2026-04-25 21:02 58.87776 5.63254 26 ft 11 kts 36°
2026-04-25 21:02 58.87830 5.63283 26 ft 6 kts 15°
2026-04-25 21:03 58.87860 5.63300 26 ft 4 kts 20°
2026-04-25 21:03 58.87940 5.63364 26 ft 17 kts 19°
2026-04-25 21:03 58.88080 5.63429 25 ft 24 kts 359°
2026-04-25 21:03 58.88263 5.63443 25 ft 28 kts 357°
2026-04-25 21:04 58.88440 5.63433 26 ft 20 kts 355°
2026-04-25 21:04 58.88541 5.63430 26 ft 10 kts
2026-04-25 21:04 58.88587 5.63433 26 ft 4 kts
2026-04-25 21:04 58.88596 5.63435 26 ft 0 kts 14°
2026-04-25 21:05 58.88619 5.63436 26 ft 7 kts 357°
2026-04-25 21:05 58.88649 5.63435 26 ft 4 kts
2026-04-25 21:05 58.88771 5.63412 26 ft 21 kts 356°
2026-04-25 21:05 58.88950 5.63404 23 ft 28 kts
2026-04-25 21:06 58.89151 5.63340 21 ft 26 kts 356°
2026-04-25 21:06 58.89200 5.63285 21 ft 0 kts 271°